Location: Dehesa de la Cepeda
(40.6574°N, 4.3013°W)
Time: 11:05:05
(UTC+00:00)

Transit 4A - Visible Passes

Search period start: 02 August 2021 00:00
Search period end: 12 August 2021 00:00
Orbit: 872 x 972 km, 66.8° (Epoch: 01 August)

Date Brightness Start Highest point End Pass type
(mag) Time Alt. Az. Time Alt. Az. Time Alt. Az.
02 Aug 8.3 00:30:40 53° NW 00:30:40 53° NW 00:36:13 10° NNE visible
02 Aug 10.2 02:16:25 10° NW 02:18:14 11° NW 02:20:03 10° NNW visible
02 Aug 9.1 22:55:53 27° ENE 22:55:53 27° ENE 22:58:56 10° NE visible
03 Aug 8.8 00:39:21 36° WNW 00:39:56 36° NW 00:45:19 10° NNE visible
03 Aug 8.5 23:04:31 41° ENE 23:04:31 41° ENE 23:08:29 10° NE visible
04 Aug 9.4 00:48:00 24° WNW 00:49:28 26° NW 00:54:19 10° N visible
04 Aug 8.0 23:13:05 62° NE 23:13:05 62° NE 23:17:54 10° NNE visible
05 Aug 9.9 00:56:33 15° WNW 00:59:05 19° NW 01:03:09 10° N visible
05 Aug 9.6 21:38:06 14° ENE 21:38:06 14° ENE 21:39:25 10° ENE visible
05 Aug 8.0 23:21:33 67° NW 23:21:33 67° NW 23:27:10 10° NNE visible
06 Aug 10.3 01:05:52 10° WNW 01:08:48 14° NW 01:11:45 10° N visible
06 Aug 9.1 21:46:27 24° E 21:46:27 24° E 21:49:31 10° NE visible
06 Aug 8.6 23:29:54 43° WNW 23:30:44 46° NW 23:36:20 10° NNE visible
07 Aug 10.6 01:18:08 10° NW 01:18:37 10° NNW 01:19:07 10° NNW visible
07 Aug 8.3 21:54:39 39° E 21:54:39 39° E 21:59:14 10° NE visible
07 Aug 9.2 23:38:05 25° W 23:40:12 32° NW 23:45:24 10° NNE visible
08 Aug 7.7 22:02:37 63° SE 22:02:58 64° ESE 22:08:45 10° NE visible
08 Aug 9.8 23:46:01 13° W 23:49:45 23° NW 23:54:21 10° N visible
09 Aug 9.4 20:26:47 13° ESE 20:26:47 13° ESE 20:29:19 10° ENE visible
09 Aug 7.7 22:10:09 43° SSW 22:12:13 86° WNW 22:18:05 10° NNE visible
09 Aug 10.2 23:55:42 10° W 23:59:25 17° NW 00:03:08 10° N visible
10 Aug 8.9 20:33:33 17° SE 20:35:43 21° ESE 20:39:57 10° ENE visible
10 Aug 8.2 22:16:50 16° SW 22:21:34 59° WNW 22:27:19 10° NNE visible
11 Aug 10.5 00:06:48 10° WNW 00:09:10 12° NW 00:11:33 10° N visible
11 Aug 8.4 20:39:38 10° S 20:44:47 32° ESE 20:49:53 10° NE visible
11 Aug 9.0 22:25:28 10° WSW 22:30:58 40° NW 22:36:27 10° NNE visible
